Location: *
(43.7000°S, 168.7000°W)
Time: 14:35:19
(UTC+00:00)

Cosmos 2219 - Pass Details

Date: 07 July 2020
Orbit: 835 x 858 km, 71.1° (Epoch: 03 August)

Event Time Altitude Azimuth Distance (km) Brightness Sun altitude
Exits shadow 17:26:15 18° 232° (SW) 2,000 4.6 -14.2°
Maximum altitude 17:29:45 34° 284° (WNW) 1,391 3.9 -13.6°
Drops below altitude 10° 17:34:52 10° 347° (NNW) 2,494 5.7 -12.7°
Sets 17:37:30 0° 356° (N) 3,419 6.6 -12.3°
